Location: Unspecified
(0.0000°N, 0.0000°E)
Time: 09:05:51
(UTC+00:00)

SR - Pass Details

Date: 18 December 2018
Orbit: 584 x 872 km, 66.7° (Epoch: 23 March)

Event Time Altitude Azimuth Distance (km) Brightness Sun altitude
Rises 12:16:47 0° 321° (NW) 2,810 ? 66.1°
Reaches altitude 10° 12:19:15 10° 310° (NW) 1,899 ? 66.0°
Maximum altitude 12:22:54 28° 250° (WSW) 1,097 ? 65.7°
Drops below altitude 10° 12:26:35 10° 190° (S) 1,915 ? 65.5°
Sets 12:29:05 0° 178° (S) 2,839 ? 65.3°
